Location: Six Mile Lake
(44.9000°N, 79.7170°W)
Time: 02:12:57
(UTC-04:00)

LO-87 - Pass Details

Date: 30 June 2022
Orbit: 450 x 466 km, 97.4° (Epoch: 14 August)

Event Time Altitude Azimuth Distance (km) Brightness Sun altitude
Exits shadow 01:08:44 51° 284° (WNW) 591 ? -21.9°
Drops below altitude 10° 01:11:48 10° 338° (NNW) 1,621 ? -21.9°
Sets 01:13:54 0° 344° (NNW) 2,505 ? -21.9°
